Temperature
5 5 5 5 5 6 6 6 6 6 6 6 6 6 6 6 6 6 6 6 6 6 5 5 6 5 5 5 5 5 4 4 4 4 4 4 4 4 4 4 4 4 4
4 4 5 5 5 5 5 5 5 5 5 5 5 5 5 5 5 5 5 5 5 5 5 5 5 5 5 5 4 4 4 4 4 4 4 4 4 4 4 4 4 4 4
4 4 4 4 4 5 5 5 5 5 5 5 5 5 5 5 5 5 5 5 5 5 5 5 5 5 5 4 4 4 4 4 4 3 4 3 3 3 3 3 3 3 4
3 4 4 4 4 4 4 4 4 4 4 4 4 4 5 5 4 5 4 4 4 4 4 4 4 4 4 4 4 4 4 4 3 3 3 3 3 3 3 3 3 3 3
3 3 3 3 3 4 4 4 4 4 4 4 4 4 4 4 4 4 4 4 4 4 4 4 4 4 4 4 4 3 3 3 3 3 3 2 3 3 3 2 2 3 3
3 3 3 3 3 3 3 3 3 3 3 3 3 3 4 4 4 3 3 3 3 3 3 3 3 3 3 3 3 3 3 3 3 2 2 2 2 2 2 2 2 2 2
2 2 2 2 2 2 3 3 3 3 3 3 3 3 3 3 3 3 3 3 3 3 3 3 3 3 3 3 3 3 3 2 2 2 2 2 2 2 2 2 2 2 2
2 2 2 2 2 2 2 2 2 2 2 2 2 2 2 2 2 2 2 2 2 2 2 2 2 2 3 2 2 2 2 2 2 2 2 2 2 2 2 2 2 2 2
1 1 1 1 1 1 1 1 2 2 2 2 2 2 2 2 2 2 1 1 1 1 2 2 2 2 2 2 2 2 2 2 2 2 2 2 2 2 2 2 2 1 1
1 1 1 1 1 1 1 1 1 1 1 1 1 1 1 1 1 1 1 1 1 1 1 1 1 1 1 1 1 1 2 2 2 2 2 2 2 2 2 2 2 1 1
0 0 0 0 0 -0 -0 0 0 0 0 1 1 1 1 1 1 1 0 0 0 0 0 1 1 1 1 1 1 1 1 1 1 2 2 2 2 2 2 2 2 1 1
-0 -0 -0 -0 -0 -1 -1 -0 -0 -0 -0 -0 0 0 -0 -0 0 -0 -0 -0 -0 -0 -0 0 0 0 0 1 1 1 1 1 1 1 1 2 2 2 2 2 2 1 1
-1 -1 -1 -1 -1 -1 -1 -1 -1 -1 -1 -1 -1 -1 -1 -1 -1 -1 -1 -1 -1 -1 -1 -0 -0 -0 0 0 0 1 1 1 1 1 1 1 1 1 1 1 1 1 1
-1 -1 -1 -2 -2 -2 -2 -1 -1 -1 -1 -1 -1 -1 -1 -1 -1 -1 -1 -1 -1 -1 -1 -1 -1 -0 -0 -0 0 0 0 0 0 0 1 1 1 1 1 1 1 1 1
-2 -2 -2 -2 -2 -2 -2 -2 -2 -2 -2 -2 -2 -2 -2 -2 -2 -2 -2 -2 -2 -2 -2 -1 -1 -1 -1 -1 -1 -0 -0 0 0 0 0 1 1 1 1 1 1 1 1
-3 -3 -3 -3 -3 -3 -3 -2 -2 -2 -2 -2 -2 -2 -2 -2 -2 -2 -2 -2 -2 -2 -2 -2 -2 -2 -2 -1 -1 -1 -1 -0 -0 -0 -0 0 0 0 0 0 1 0 0
-3 -3 -3 -3 -3 -3 -3 -3 -3 -3 -3 -3 -3 -3 -3 -3 -2 -2 -2 -2 -2 -2 -2 -2 -2 -2 -2 -2 -2 -1 -1 -1 -1 -1 -0 -0 -0 -0 -0 -0 0 0 0
-4 -4 -4 -4 -4 -4 -4 -4 -4 -3 -3 -3 -3 -3 -3 -3 -3 -3 -3 -3 -3 -3 -3 -2 -2 -2 -2 -2 -2 -2 -2 -1 -1 -1 -1 -1 -1 -1 -0 -0 -0 -0 -0
-4 -4 -4 -4 -4 -4 -4 -4 -4 -4 -4 -4 -3 -3 -3 -3 -3 -3 -3 -3 -3 -3 -3 -3 -3 -3 -3 -3 -2 -2 -2 -2 -2 -1 -1 -1 -1 -1 -1 -1 -1 -0 -0
-5 -5 -5 -5 -5 -5 -5 -5 -5 -5 -5 -4 -4 -4 -4 -4 -4 -3 -3 -4 -4 -4 -3 -3 -3 -3 -3 -3 -3 -3 -2 -2 -2 -2 -2 -2 -1 -1 -1 -1 -1 -1 -1
-5 -5 -5 -5 -6 -6 -5 -5 -5 -5 -5 -5 -5 -5 -5 -5 -4 -4 -4 -4 -4 -4 -4 -4 -4 -3 -3 -3 -3 -3 -3 -3 -2 -2 -2 -2 -2 -2 -1 -1 -1 -1 -1
-6 -6 -6 -6 -6 -6 -6 -6 -6 -6 -6 -6 -5 -5 -5 -5 -5 -5 -5 -5 -5 -5 -4 -4 -4 -4 -4 -4 -3 -3 -3 -3 -3 -2 -2 -2 -2 -2 -2 -2 -2 -2 -2
-6 -6 -6 -6 -6 -6 -6 -6 -6 -6 -6 -6 -6 -6 -6 -6 -5 -5 -5 -5 -5 -5 -5 -5 -4 -4 -4 -4 -4 -4 -3 -3 -3 -3 -2 -2 -2 -2 -2 -2 -2 -2 -2
-7 -7 -7 -7 -7 -7 -7 -7 -7 -7 -7 -7 -7 -6 -6 -6 -6 -6 -6 -6 -5 -5 -5 -5 -5 -5 -4 -4 -4 -4 -4 -3 -3 -3 -3 -3 -2 -2 -2 -2 -2 -2 -2
-7 -7 -7 -7 -7 -7 -7 -7 -7 -7 -7 -7 -7 -7 -7 -7 -6 -6 -6 -6 -6 -6 -6 -5 -5 -5 -5 -4 -4 -4 -4 -4 -3 -3 -3 -3 -3 -3 -3 -3 -2 -2 -2
-8 -8 -8 -8 -8 -8 -8 -8 -8 -8 -8 -8 -8 -7 -7 -7 -7 -7 -6 -6 -6 -6 -6 -6 -5 -5 -5 -5 -4 -4 -4 -4 -4 -4 -3 -3 -3 -3 -3 -3 -3 -3 -3
Wind_Speed
2 1 1 1 1 2 2 2 1 1 1 2 2 2 2 2 2 2 2 2 2 2 2 3 3 3 3 3 3 4 4 4 6 6 5 6 7 6 6 7 8 7 7
2 2 2 2 2 2 2 2 2 2 2 1 1 2 2 2 2 3 2 2 3 3 3 3 3 3 4 3 3 4 4 4 5 7 6 5 6 6 6 6 6 6 7
1 2 2 2 2 2 2 2 2 2 2 1 1 2 2 2 3 3 3 3 3 3 3 4 3 3 3 3 4 4 4 4 4 4 5 5 5 5 6 6 6 6 6
1 2 2 2 2 2 2 2 2 2 2 2 2 2 2 2 3 2 3 3 3 3 3 4 4 3 4 4 4 4 4 4 4 4 4 4 4 5 5 5 5 5 5
2 2 2 2 2 2 2 2 2 2 2 2 2 2 2 2 2 2 3 3 3 3 3 3 3 4 4 4 4 4 4 4 3 3 4 4 4 4 5 5 5 6 5
2 2 2 2 2 2 3 2 2 2 2 2 2 2 2 2 3 4 3 3 3 4 4 4 3 3 4 4 5 5 5 4 4 4 4 5 5 5 5 4 5 5 4
2 2 2 2 2 3 3 3 3 3 3 3 3 3 3 3 3 3 3 3 3 3 4 4 3 3 4 4 4 4 4 5 5 5 6 6 6 5 5 5 5 5 5
2 2 2 2 3 3 3 3 3 3 3 3 3 3 4 3 3 3 3 3 3 3 3 4 4 4 3 4 4 4 4 5 5 5 6 6 6 5 5 5 5 5 5
2 2 2 3 3 3 3 3 3 3 3 3 3 3 4 3 3 3 2 2 3 4 3 4 4 4 4 4 4 5 5 5 5 6 7 7 6 5 4 3 3 3 4
3 3 3 3 3 3 3 4 3 3 3 3 3 3 4 3 3 3 3 2 3 3 3 3 4 5 4 4 4 5 5 6 6 6 6 5 4 3 3 3 3 3 3
3 3 3 3 3 3 3 3 3 3 3 2 3 3 3 3 3 3 3 3 3 3 3 3 3 5 5 5 5 4 6 6 5 5 4 4 3 2 2 3 3 3 3
3 3 3 3 2 2 3 3 2 2 2 2 2 3 3 2 3 3 4 4 4 4 4 4 4 5 5 6 5 5 6 5 3 4 3 3 3 3 3 4 4 4 4
3 3 3 3 2 2 2 3 2 2 2 2 2 3 3 2 2 3 4 5 5 4 4 5 5 5 6 4 4 5 4 3 3 3 4 3 3 3 3 3 3 3 4
3 3 3 2 3 2 2 2 2 2 2 2 3 3 3 3 3 2 3 3 4 4 4 4 5 5 4 4 4 3 3 3 3 3 4 3 3 2 2 2 3 3 3
3 3 3 3 3 3 3 3 3 3 3 3 4 4 3 4 4 6 4 4 4 3 3 3 3 3 3 3 3 3 2 2 3 3 3 3 3 3 3 2 2 2 2
3 3 3 3 3 3 3 3 3 4 5 5 5 5 4 5 6 6 7 6 6 4 3 3 3 3 3 3 3 3 3 3 3 3 3 3 3 3 3 2 2 2 2
3 3 3 3 3 3 3 3 3 3 3 4 5 5 6 6 6 6 6 5 5 4 3 3 3 3 3 3 3 3 3 3 3 3 3 3 3 3 2 2 2 2 2
3 3 3 3 3 3 3 3 3 4 4 3 3 4 5 5 5 5 5 4 3 2 3 3 4 3 3 3 4 4 3 3 3 3 3 3 2 2 2 2 2 2 2
3 3 3 3 3 3 3 3 3 3 4 4 4 3 4 5 5 4 4 3 3 3 3 4 4 4 3 4 4 4 4 4 3 3 3 3 3 3 3 3 2 3 2
3 4 4 3 3 3 3 3 3 3 3 4 4 4 4 4 3 3 3 3 3 4 4 4 4 4 4 4 4 3 3 4 4 3 3 3 3 3 3 3 2 2 2
3 3 4 3 3 3 3 3 3 3 3 4 4 4 6 4 4 4 4 3 4 4 4 4 4 4 4 4 3 4 4 4 4 4 3 3 3 3 3 2 2 2 2
3 3 3 3 3 3 3 3 3 3 4 4 4 4 6 4 4 4 4 4 4 4 4 4 4 4 4 4 4 4 4 4 4 3 3 3 3 3 2 2 2 1 1
3 3 3 3 3 4 4 3 3 3 4 4 4 4 4 4 4 4 4 4 4 4 4 4 4 4 4 5 5 4 4 4 4 4 3 3 3 2 2 2 2 2 2
3 3 3 3 3 3 3 3 3 4 4 4 4 4 4 4 4 5 5 5 5 5 5 5 5 6 7 6 5 5 5 5 5 4 4 4 3 2 2 2 2 2 2
3 3 3 3 3 3 3 3 4 4 4 4 4 4 4 4 5 5 5 5 5 5 6 6 5 6 7 7 7 6 6 6 6 4 4 3 3 3 2 2 2 2 2
3 3 3 3 3 3 3 3 3 4 4 4 4 4 4 4 5 5 4 5 5 5 5 5 6 7 7 7 7 7 7 7 6 5 3 3 3 3 2 2 2 2 2
Wind_Direction
233 244 248 251 257 248 244 251 262 258 233 236 237 230 224 226 234 242 256 255 261 269 266 254 251 257 262 261 261 254 255 260 273 291 298 308 307 306 311 312 313 314 317
241 241 252 257 255 251 252 256 265 254 234 231 247 235 229 233 237 240 251 262 262 262 264 265 266 269 266 267 266 266 261 264 272 285 301 307 307 305 308 311 314 312 316
260 246 253 258 255 258 265 263 260 251 233 219 243 249 239 236 237 240 246 253 262 264 265 265 269 271 277 274 273 272 273 278 277 280 293 307 308 307 313 314 313 314 319
264 253 259 265 267 268 271 272 259 246 233 223 235 255 244 235 231 243 250 253 264 266 267 269 270 269 274 282 277 274 277 282 282 278 290 301 308 313 314 318 317 321 321
263 265 275 283 287 282 274 270 264 251 243 239 233 251 241 234 233 250 257 256 269 272 268 268 271 278 286 287 285 285 282 278 279 284 289 298 306 316 308 308 305 315 315
265 277 291 295 294 290 281 271 263 256 249 242 239 253 238 240 260 250 260 262 265 268 273 274 278 271 282 290 291 295 290 273 273 277 282 286 290 297 301 299 303 311 309
270 286 292 291 294 297 294 280 263 254 248 246 249 259 249 250 259 250 256 268 263 266 272 277 280 281 287 282 287 289 289 287 277 271 271 279 284 283 282 283 287 298 294
281 289 294 297 298 299 292 287 279 263 254 250 254 268 259 254 260 254 257 262 261 267 272 274 271 275 280 293 289 283 285 287 283 279 278 282 283 279 268 271 278 292 303
292 297 299 297 296 297 298 294 290 277 268 261 257 267 262 258 258 262 274 265 264 271 274 273 275 274 285 297 290 287 291 296 299 292 293 289 289 287 282 279 277 287 301
302 297 294 290 287 288 294 296 297 290 278 273 266 272 263 261 263 262 271 265 272 279 277 273 272 280 289 292 285 285 289 299 307 304 297 295 293 278 262 256 256 269 296
308 299 297 294 289 287 293 295 295 294 288 279 276 282 272 267 263 261 272 271 273 280 279 276 272 277 283 285 288 284 290 301 295 294 295 299 304 297 291 299 287 272 272
306 299 298 300 298 292 293 295 294 292 286 285 282 292 283 275 273 274 277 282 288 276 276 279 283 286 286 285 284 296 301 302 292 293 293 297 306 312 314 316 317 321 306
301 299 301 307 306 299 294 295 295 289 282 284 286 286 287 288 280 279 281 287 284 277 280 287 293 295 294 280 279 290 287 286 291 290 290 294 301 304 311 322 337 350 345
301 303 306 309 314 312 302 292 285 279 278 278 282 282 283 283 283 284 282 285 284 278 282 285 285 284 284 285 283 277 276 277 281 282 291 300 311 315 310 318 322 331 333
302 305 308 307 306 308 304 295 288 281 281 280 277 280 279 282 290 296 293 282 280 281 292 284 281 281 283 286 291 293 290 285 286 295 293 301 307 309 314 319 320 321 319
300 305 308 307 308 309 311 313 302 288 297 293 290 290 289 289 299 298 295 291 287 282 272 270 272 274 278 284 290 297 297 291 290 291 286 286 291 292 300 310 314 311 314
295 299 300 302 304 306 304 303 310 314 299 288 286 291 294 297 298 300 300 291 278 267 260 267 270 273 277 280 281 283 288 293 290 283 281 281 288 290 288 290 292 300 313
292 292 293 291 294 293 292 293 293 300 306 305 300 296 300 302 299 298 300 294 273 264 263 268 272 275 276 277 277 281 286 290 292 289 285 283 282 279 278 277 276 289 300
287 289 293 293 292 290 291 291 289 290 293 298 305 312 318 313 301 292 292 277 270 270 268 268 269 268 271 276 277 279 280 279 282 285 279 274 273 272 272 271 273 285 295
281 290 295 292 293 294 294 293 293 292 292 292 296 307 316 312 305 302 298 287 280 279 277 275 274 271 270 271 276 276 279 278 278 277 278 276 273 267 267 265 264 267 275
281 281 285 287 285 288 290 290 293 294 294 293 295 299 305 296 291 291 292 288 284 284 285 283 279 276 272 272 273 273 271 274 275 274 275 275 272 271 269 261 259 263 277
271 274 276 279 283 285 288 290 291 290 293 295 300 304 306 299 293 291 289 289 290 286 283 282 282 280 275 269 267 270 270 271 277 278 276 272 268 265 263 256 252 256 259
265 267 270 275 280 285 289 289 289 289 290 294 299 303 305 303 299 295 293 291 289 287 285 282 280 282 282 276 268 261 264 270 273 274 274 271 265 255 248 247 245 242 242
263 261 264 271 277 278 280 283 286 287 289 292 296 300 304 303 300 299 297 294 292 289 288 285 281 282 285 283 278 272 269 274 278 268 261 262 260 254 242 236 234 235 227
262 260 261 265 269 273 277 279 281 283 286 289 293 297 301 302 301 301 302 301 299 294 293 292 289 286 286 285 282 278 279 281 276 272 260 251 252 248 237 226 223 221 207
258 258 259 260 262 267 272 276 279 283 286 289 292 295 296 297 299 304 308 308 307 302 300 297 295 295 293 290 284 280 281 280 274 270 258 242 243 239 229 218 213 201 181
Height
1501 1502 1502 1502 1503 1503 1504 1504 1504 1504 1505 1505 1504 1505 1505 1505 1505 1505 1505 1505 1505 1504 1504 1504 1504 1504 1503 1503 1502 1501 1500 1499 1496 1493 1492 1490 1488 1485 1483 1481 1478 1475 1473
1499 1499 1500 1500 1500 1501 1501 1502 1502 1502 1502 1502 1502 1502 1502 1502 1502 1502 1502 1502 1502 1502 1501 1501 1500 1500 1500 1499 1499 1498 1497 1495 1494 1491 1488 1487 1484 1482 1480 1478 1475 1473 1470
1497 1497 1497 1497 1498 1498 1498 1499 1499 1499 1499 1499 1499 1499 1499 1499 1499 1499 1499 1499 1499 1499 1498 1498 1497 1497 1496 1496 1495 1494 1493 1492 1490 1488 1485 1484 1482 1480 1477 1475 1473 1470 1468
1495 1495 1495 1495 1495 1495 1495 1495 1496 1496 1496 1496 1496 1496 1496 1496 1496 1496 1496 1496 1496 1496 1495 1494 1494 1494 1493 1492 1491 1491 1490 1488 1487 1485 1482 1480 1479 1477 1475 1472 1469 1467 1465
1493 1493 1492 1492 1492 1492 1492 1492 1492 1492 1492 1492 1492 1493 1493 1493 1493 1492 1493 1492 1492 1492 1492 1491 1491 1490 1490 1489 1488 1487 1486 1484 1483 1481 1479 1477 1475 1473 1472 1470 1467 1465 1462
1491 1490 1490 1490 1490 1489 1490 1489 1489 1489 1489 1489 1489 1489 1489 1489 1489 1489 1489 1489 1488 1488 1488 1487 1487 1486 1486 1485 1485 1484 1483 1481 1479 1478 1476 1474 1472 1471 1469 1467 1465 1463 1460
1488 1488 1488 1487 1487 1487 1486 1486 1486 1486 1486 1486 1486 1486 1486 1486 1486 1486 1485 1485 1485 1485 1485 1484 1483 1483 1482 1481 1481 1480 1479 1478 1477 1475 1473 1471 1469 1468 1466 1464 1463 1461 1459
1486 1486 1485 1485 1484 1484 1483 1483 1483 1483 1483 1483 1483 1482 1482 1482 1482 1482 1482 1482 1481 1481 1481 1480 1480 1479 1479 1478 1477 1476 1475 1474 1473 1471 1469 1468 1466 1465 1463 1462 1460 1458 1456
1484 1483 1483 1482 1482 1481 1481 1480 1480 1480 1480 1480 1480 1479 1479 1479 1479 1479 1478 1478 1478 1478 1477 1477 1476 1476 1475 1474 1473 1472 1470 1470 1469 1467 1466 1464 1463 1461 1460 1459 1457 1455 1453
1482 1481 1481 1480 1480 1479 1478 1478 1477 1477 1477 1477 1476 1476 1476 1475 1475 1475 1475 1475 1474 1474 1474 1473 1473 1472 1472 1470 1469 1468 1466 1466 1465 1463 1462 1461 1459 1458 1457 1456 1454 1452 1450
1480 1479 1478 1478 1477 1476 1476 1475 1475 1474 1474 1474 1473 1473 1473 1472 1472 1472 1472 1472 1471 1471 1470 1469 1469 1469 1468 1467 1466 1464 1463 1462 1461 1460 1458 1457 1456 1455 1454 1453 1452 1450 1448
1478 1477 1476 1475 1475 1474 1473 1472 1472 1471 1471 1471 1470 1470 1470 1470 1469 1469 1469 1468 1468 1467 1466 1466 1465 1465 1464 1463 1462 1461 1460 1459 1458 1457 1455 1454 1452 1451 1451 1450 1449 1447 1446
1475 1474 1473 1473 1472 1471 1471 1470 1469 1469 1468 1468 1467 1467 1467 1466 1466 1466 1465 1465 1464 1464 1463 1463 1462 1461 1461 1460 1459 1458 1457 1456 1455 1454 1452 1451 1450 1449 1448 1447 1446 1445 1444
1473 1472 1471 1470 1469 1469 1468 1468 1467 1466 1466 1465 1465 1464 1464 1463 1463 1462 1462 1462 1461 1460 1460 1459 1459 1458 1457 1456 1456 1455 1454 1453 1452 1451 1450 1449 1448 1447 1446 1445 1444 1442 1441
1470 1469 1468 1468 1467 1466 1466 1465 1464 1464 1464 1463 1463 1462 1461 1460 1460 1460 1459 1458 1458 1457 1456 1456 1455 1454 1454 1453 1452 1452 1451 1450 1449 1448 1447 1446 1445 1444 1443 1443 1442 1440 1439
1468 1467 1466 1465 1464 1464 1463 1462 1461 1461 1461 1460 1460 1459 1458 1457 1456 1456 1456 1455 1454 1454 1453 1452 1452 1451 1450 1450 1449 1448 1447 1447 1446 1445 1444 1443 1442 1441 1441 1440 1439 1438 1437
1466 1465 1464 1463 1462 1461 1460 1459 1458 1458 1458 1457 1457 1456 1455 1454 1453 1453 1452 1451 1451 1450 1450 1449 1449 1448 1447 1447 1446 1445 1444 1444 1443 1442 1441 1441 1440 1439 1439 1438 1437 1436 1435
1463 1462 1461 1460 1460 1459 1458 1457 1456 1455 1454 1454 1454 1453 1452 1451 1450 1450 1449 1448 1447 1447 1446 1446 1445 1445 1444 1444 1443 1442 1441 1441 1440 1439 1439 1438 1438 1437 1436 1436 1435 1434 1433
1460 1460 1459 1458 1457 1456 1455 1455 1454 1453 1452 1451 1450 1450 1449 1448 1447 1447 1446 1445 1444 1444 1443 1443 1442 1442 1441 1440 1440 1439 1438 1438 1437 1436 1436 1436 1435 1435 1434 1434 1433 1432 1431
1457 1457 1456 1455 1454 1453 1452 1452 1451 1450 1449 1448 1448 1447 1446 1445 1444 1443 1443 1442 1441 1441 1440 1440 1439 1438 1438 1437 1437 1436 1435 1435 1434 1434 1433 1433 1433 1432 1432 1432 1431 1430 1429
1454 1453 1453 1452 1451 1450 1449 1449 1448 1447 1446 1446 1445 1444 1444 1442 1441 1440 1439 1439 1438 1437 1437 1436 1435 1435 1434 1434 1433 1433 1432 1432 1432 1431 1431 1430 1430 1430 1430 1429 1429 1428 1427
1451 1450 1449 1449 1448 1447 1446 1446 1445 1444 1444 1443 1442 1441 1440 1439 1438 1437 1436 1435 1435 1434 1434 1433 1432 1431 1431 1431 1430 1430 1429 1429 1429 1428 1428 1428 1428 1428 1427 1427 1426 1426 1425
1447 1447 1446 1446 1445 1444 1443 1443 1442 1441 1441 1440 1439 1438 1437 1436 1435 1434 1433 1432 1432 1431 1430 1429 1428 1428 1428 1427 1427 1427 1426 1426 1426 1426 1426 1425 1425 1425 1425 1424 1424 1424 1423
1444 1443 1443 1442 1442 1441 1440 1440 1439 1438 1438 1437 1436 1435 1434 1433 1432 1431 1430 1429 1428 1427 1427 1426 1425 1424 1424 1424 1424 1423 1423 1423 1423 1423 1423 1423 1423 1422 1422 1422 1422 1422 1422
1441 1440 1440 1439 1438 1438 1437 1436 1436 1435 1434 1433 1432 1432 1431 1430 1428 1427 1426 1425 1425 1424 1423 1422 1422 1421 1421 1421 1420 1420 1420 1420 1420 1420 1420 1421 1420 1420 1420 1420 1420 1421 1421
1437 1437 1436 1436 1435 1434 1434 1433 1432 1432 1431 1430 1429 1428 1427 1426 1425 1424 1423 1422 1421 1420 1420 1419 1419 1418 1418 1417 1417 1417 1417 1417 1417 1418 1418 1418 1418 1418 1418 1418 1419 1419 1419